1515711601.09,13503,9.38,73292.8,-4.11,-7.83,-6.85,0,*57
1515711602.32,13504,9.38,73292.8,-4.13,-7.95,-6.89,0,*59
1515711603.55,13505,9.38,73294.5,-4.13,-7.95,-6.89,0,*58
1515711604.77,13506,9.38,73294.8,-4.13,-8.03,-6.89,0,*5B
1515711606.01,13507,9.38,73292.8,-4.13,-8.07,-7.11,0,*5E
1515711607.25,13508,9.31,73290.5,-4.13,-8.07,-7.15,0,*55
1515711608.48,13509,9.38,73294.3,-4.13,-8.07,-7.15,0,*54
1515711609.74,13510,9.38,73294.8,-4.13,-7.95,-7.01,0,*5D
1515711610.97,13511,9.38,73292.3,-4.13,-7.83,-7.01,0,*5B
1515711612.22,13512,9.31,73292.5,-4.15,-7.87,-7.01,0,*5A
1515711613.43,13513,9.38,73296.0,-4.13,-7.83,-6.89,0,*58
1515711614.66,13514,9.38,73292.8,-4.13,-7.77,-6.89,0,*54
1515711615.86,13515,9.38,73296.0,-4.13,-7.83,-6.89,0,*5E
1515711617.09,13516,9.38,73296.0,-4.13,-7.77,-6.89,0,*56
1515711618.32,13517,9.38,73296.3,-4.13,-7.65,-6.89,0,*54
1515711619.55,13518,9.38,73292.3,-4.13,-7.69,-6.85,0,*5B
1515711620.78,13519,9.38,73296.3,-4.13,-7.77,-6.89,0,*59
1515711622.01,13520,9.38,73294.3,-4.13,-7.83,-6.97,0,*57
1515711623.27,13521,9.38,73298.0,-4.15,-7.99,-7.15,0,*50
1515711624.52,13522,9.38,73296.8,-4.11,-7.95,-7.15,0,*5B
1515711625.78,13523,9.38,73292.3,-4.15,-8.11,-7.23,0,*58
1515711627.01,13524,9.38,73292.3,-4.13,-8.21,-7.35,0,*5D
1515711628.24,13525,9.38,73292.8,-4.13,-8.29,-7.35,0,*54
1515711629.47,13526,9.38,73292.8,-4.13,-8.29,-7.39,0,*5B
1515711630.69,13527,9.38,73296.5,-4.13,-8.33,-7.39,0,*51
1515711631.92,13528,9.38,73298.3,-4.13,-8.33,-7.39,0,*5E
1515711633.15,13529,9.38,73294.8,-4.13,-8.33,-7.43,0,*52
1515711634.4,13530,9.38,73294.3,-4.15,-8.33,-7.43,0,*5C
1515711635.66,13531,9.38,73294.5,-4.15,-8.33,-7.43,0,*5D
1515711636.91,13532,9.38,73294.8,-4.15,-8.37,-7.57,0,*5F
1515711638.11,13533,9.38,73294.8,-4.13,-8.33,-7.53,0,*58
1515711639.31,13534,9.38,73296.3,-4.13,-8.33,-7.53,0,*5F
1515711640.53,13535,9.38,73294.0,-4.13,-8.33,-7.65,0,*5B
1515711641.79,13536,9.38,73296.5,-4.15,-8.41,-7.61,0,*5F
1515711643.05,13537,9.38,73298.5,-4.15,-8.33,-7.61,0,*5B
1515711644.31,13538,9.38,73292.0,-4.15,-8.25,-7.57,0,*56
1515711645.51,13539,9.38,73294.8,-4.13,-8.21,-7.53,0,*51
1515711646.76,13540,9.38,73294.8,-4.15,-8.25,-7.57,0,*59
1515711648.02,13541,9.38,73292.3,-4.15,-8.25,-7.61,0,*5D
1515711649.28,13542,9.38,73292.8,-4.15,-8.25,-7.57,0,*5B
1515711650.53,13543,9.38,73294.8,-4.15,-8.33,-7.57,0,*5D
1515711651.76,13544,9.38,73292.0,-4.13,-8.33,-7.61,0,*59
1515711653.01,13545,9.38,73294.3,-4.15,-8.33,-7.61,0,*5E
1515711654.21,13546,9.38,73294.8,-4.13,-8.21,-7.53,0,*59
1515711655.46,13547,9.38,73292.0,-4.15,-8.33,-7.57,0,*59
1515711656.72,13548,9.38,73294.8,-4.15,-8.33,-7.57,0,*56
1515711657.97,13549,9.38,73294.5,-4.15,-8.41,-7.69,0,*5F
1515711659.23,13550,9.38,73294.5,-4.15,-8.41,-7.61,0,*5F
1515711660.51,13551,9.38,73292.3,-4.15,-8.51,-7.69,0,*57
1515711661.77,13552,9.38,73294.3,-4.15,-8.63,-7.73,0,*5E
1515711663.0,13553,9.38,73294.5,-4.15,-8.63,-7.83,0,*50
1515711664.24,13554,9.31,73292.5,-4.15,-8.63,-7.83,0,*57
1515711665.52,13555,9.38,73294.8,-4.15,-8.51,-7.73,0,*58
1515711666.81,13556,9.38,73294.3,-4.15,-8.51,-7.73,0,*5B
1515711668.07,13557,9.38,73294.8,-4.15,-8.41,-7.73,0,*5B
1515711669.35,13558,9.38,73292.0,-4.15,-8.51,-7.69,0,*5E
1515711670.61,13559,9.38,73292.5,-4.15,-8.41,-7.61,0,*56
1515711671.89,13560,9.38,73292.8,-4.15,-8.51,-7.69,0,*55
1515711673.14,13561,9.38,73292.0,-4.15,-8.41,-7.69,0,*55
1515711674.42,13562,9.38,73292.5,-4.15,-8.51,-7.69,0,*57
1515711675.67,13563,9.38,73292.3,-4.15,-8.55,-7.69,0,*52
1515711676.91,13564,9.38,73294.0,-4.15,-8.67,-7.83,0,*50
1515711678.14,13565,9.38,73294.8,-4.15,-8.63,-7.83,0,*55
1515711679.38,13566,9.38,73292.3,-4.15,-8.63,-7.83,0,*56
1515711680.61,13567,9.38,73292.0,-4.15,-8.75,-7.83,0,*50
1515711681.82,13568,9.38,73292.0,-4.17,-8.75,-7.83,0,*5D
1515711683.05,13569,9.38,73294.5,-4.17,-8.89,-7.95,0,*58
1515711684.29,13570,9.38,73294.0,-4.17,-8.89,-7.95,0,*50
1515711685.54,13571,9.38,73294.0,-4.17,-8.81,-7.99,0,*55
1515711686.79,13572,9.38,73292.0,-4.17,-8.81,-7.99,0,*56
1515711688.05,13573,9.38,73290.5,-4.17,-8.81,-8.07,0,*5F
1515711689.32,13574,9.38,73296.3,-4.15,-8.81,-7.95,0,*5E
1515711690.57,13575,9.38,73294.3,-4.17,-8.81,-7.95,0,*5D
1515711691.81,13576,9.38,73292.0,-4.17,-8.89,-7.99,0,*5A
1515711693.07,13577,9.38,73292.5,-4.15,-8.89,-7.99,0,*59
1515711694.31,13578,9.31,73288.3,-4.17,-8.89,-7.99,0,*54
1515711695.54,13579,9.38,73292.3,-4.17,-8.89,-7.99,0,*55
1515711696.79,13580,9.38,73292.0,-4.17,-8.89,-8.07,0,*5B
1515711698.03,13581,9.31,73288.3,-4.17,-8.93,-8.07,0,*51
1515711699.27,13582,9.38,73292.3,-4.17,-9.01,-8.07,0,*58
1515711700.52,13583,9.38,73292.0,-4.17,-8.93,-8.07,0,*53
1515711701.77,13584,9.38,73294.3,-4.19,-8.97,-8.11,0,*59
1515711703.01,13585,9.38,73294.3,-4.17,-9.01,-8.11,0,*58
1515711704.25,13586,9.38,73290.5,-4.17,-9.01,-8.07,0,*5C
1515711705.49,13587,9.38,73292.5,-4.17,-9.05,-8.07,0,*59
1515711706.74,13588,9.38,73292.3,-4.17,-9.05,-8.07,0,*56
1515711708.0,13589,9.38,73292.5,-4.17,-9.15,-8.11,0,*51
1515711709.26,13590,9.38,73294.5,-4.17,-9.15,-8.11,0,*59
1515711710.49,13591,9.38,73290.5,-4.19,-9.19,-8.25,0,*5D
1515711711.73,13592,9.38,73292.8,-4.17,-9.19,-8.11,0,*57
1515711712.95,13593,9.38,73288.5,-4.19,-9.23,-8.25,0,*56
1515711714.16,13594,9.38,73294.0,-4.17,-9.23,-8.21,0,*5B
1515711715.37,13595,9.38,73292.3,-4.17,-9.23,-8.21,0,*5A
1515711716.6,13596,9.38,73292.8,-4.19,-9.27,-8.17,0,*56
1515711717.8,13597,9.38,73294.0,-4.17,-9.23,-8.21,0,*58
1515711719.03,13598,9.38,73294.5,-4.19,-9.27,-8.25,0,*59
1515711720.27,13599,9.38,73292.0,-4.17,-9.37,-8.21,0,*53
1515711721.52,13600,9.38,73290.5,-4.19,-9.37,-8.25,0,*5A
1515711722.77,13601,9.38,73294.3,-4.19,-9.41,-8.25,0,*5A
1515711724.03,13602,9.31,73288.8,-4.17,-9.37,-8.11,0,*51
1515711725.28,13603,9.38,73292.0,-4.19,-9.49,-8.25,0,*50
1515711726.53,13604,9.38,73292.5,-4.19,-9.49,-8.29,0,*5B
1515711727.78,13605,9.38,73294.5,-4.19,-9.49,-8.29,0,*5A
1515711729.01,13606,9.38,73290.8,-4.17,-9.49,-8.25,0,*5B
1515711730.23,13607,9.38,73294.8,-4.17,-9.57,-8.25,0,*55
1515711731.47,13608,9.38,73294.0,-4.19,-9.61,-8.29,0,*5D
1515711732.72,13609,9.38,73294.5,-4.19,-9.61,-8.29,0,*5C
1515711733.94,13610,9.38,73294.5,-4.17,-9.49,-8.25,0,*5C
1515711735.17,13611,9.38,73292.8,-4.19,-9.67,-8.29,0,*53
1515711736.41,13612,9.38,73292.3,-4.19,-9.61,-8.29,0,*56
1515711737.64,13613,9.38,73292.5,-4.19,-9.67,-8.37,0,*5E
1515711738.87,13614,9.38,73292.5,-4.17,-9.61,-8.25,0,*52
1515711740.09,13615,9.38,73290.8,-4.19,-9.67,-8.29,0,*57
1515711741.31,13616,9.38,73292.3,-4.17,-9.61,-8.25,0,*50
1515711742.54,13617,9.38,73292.5,-4.19,-9.75,-8.29,0,*56
1515711743.77,13618,9.38,73290.8,-4.19,-9.75,-8.37,0,*56
1515711745.0,13619,9.38,73292.3,-4.19,-9.79,-8.29,0,*54
1515711746.23,13620,9.38,73292.0,-4.19,-9.75,-8.29,0,*52
1515711747.45,13621,9.38,73290.0,-4.19,-9.79,-8.29,0,*5F
1515711748.67,13622,9.38,73292.8,-4.19,-9.89,-8.29,0,*53
1515711749.89,13623,9.38,73294.5,-4.19,-9.89,-8.25,0,*5E
1515711751.08,13624,9.38,73292.8,-4.17,-9.89,-8.25,0,*57
1515711752.31,13625,9.38,73294.3,-4.19,-10.01,-8.29,0,*6C
1515711753.5,13626,9.38,73294.8,-4.17,-9.97,-8.33,0,*5D
1515711754.73,13627,9.38,73292.8,-4.19,-10.01,-8.29,0,*6E
1515711755.96,13628,9.38,73292.0,-4.19,-10.01,-8.25,0,*6D
1515711757.18,13629,9.31,73290.5,-4.19,-10.05,-8.29,0,*64
1515711758.4,13630,9.38,73292.8,-4.19,-10.05,-8.25,0,*60
1515711759.61,13631,9.38,73288.8,-4.21,-10.23,-8.33,0,*69
1515711760.84,13632,9.38,73292.3,-4.19,-10.19,-8.29,0,*63
1515711762.07,13633,9.38,73292.0,-4.19,-10.19,-8.29,0,*62
1515711763.3,13634,9.38,73294.3,-4.19,-10.23,-8.29,0,*6C
1515711764.53,13635,9.38,73288.0,-4.19,-10.23,-8.29,0,*6D
1515711765.77,13636,9.38,73292.0,-4.19,-10.27,-8.37,0,*65
1515711767.0,13637,9.38,73294.8,-4.19,-10.23,-8.29,0,*6F
1515711768.24,13638,9.38,73294.0,-4.19,-10.35,-8.29,0,*67
1515711769.47,13639,9.38,73294.8,-4.19,-10.45,-8.29,0,*61
1515711770.7,13640,9.38,73292.8,-4.19,-10.57,-8.29,0,*6C
1515711771.93,13641,9.38,73292.0,-4.19,-10.57,-8.29,0,*6D
1515711773.13,13642,9.38,73294.0,-4.17,-10.53,-8.33,0,*6F
1515711774.39,13643,9.38,73292.8,-4.19,-10.63,-8.29,0,*68
1515711775.64,13644,9.38,73290.8,-4.19,-10.71,-8.29,0,*6C
1515711776.91,13645,9.38,73294.3,-4.19,-10.63,-8.37,0,*61
1515711778.15,13646,9.38,73292.3,-4.17,-10.67,-8.33,0,*6C
1515711779.41,13647,9.38,73292.8,-4.19,-10.75,-8.37,0,*64
1515711780.64,13648,9.38,73294.3,-4.19,-10.85,-8.37,0,*64
1515711781.89,13649,9.38,73292.3,-4.19,-10.97,-8.37,0,*66
1515711783.1,13650,9.38,73294.8,-4.21,-11.01,-8.41,0,*6A
1515711784.34,13651,9.38,73294.0,-4.21,-11.07,-8.41,0,*6D
1515711785.55,13652,9.38,73292.8,-4.21,-11.11,-8.41,0,*69
1515711786.75,13653,9.38,73290.0,-4.21,-11.19,-8.45,0,*64
1515711787.99,13654,9.38,73292.3,-4.19,-11.19,-8.37,0,*6D
1515711789.25,13655,9.38,73294.8,-4.19,-11.29,-8.45,0,*6A
1515711790.51,13656,9.31,73288.5,-4.19,-11.33,-8.41,0,*66
1515711791.77,13657,9.38,73292.3,-4.19,-11.33,-8.45,0,*63
1515711793.03,13658,9.31,73290.5,-4.19,-11.33,-8.45,0,*6C
1515711794.24,13659,9.38,73290.8,-4.21,-11.45,-8.59,0,*6A
1515711795.48,13660,9.38,73292.5,-4.19,-11.45,-8.45,0,*66
1515711796.74,13661,9.38,73294.8,-4.19,-11.55,-8.59,0,*6B
1515711797.99,13662,9.38,73294.5,-4.19,-11.59,-8.59,0,*64
1515711799.22,13663,9.38,73292.3,-4.21,-11.73,-8.75,0,*68
1515711800.45,13664,9.38,73294.0,-4.21,-11.77,-8.71,0,*6F
1515711801.68,13665,9.38,73290.8,-4.21,-11.85,-8.71,0,*63
1515711802.94,13666,9.38,73294.0,-4.23,-11.89,-8.71,0,*6E
1515711804.17,13667,9.38,73292.5,-4.21,-11.85,-8.75,0,*65
1515711805.41,13668,9.38,73292.0,-4.21,-11.97,-8.89,0,*6A
1515711806.64,13669,9.38,73294.3,-4.21,-11.97,-8.89,0,*6B
1515711807.88,13670,9.38,73294.3,-4.21,-12.07,-8.89,0,*69
1515711809.12,13671,9.38,73294.5,-4.21,-12.15,-8.97,0,*64
1515711810.36,13672,9.38,73292.0,-4.21,-12.15,-8.97,0,*67
1515711811.61,13673,9.38,73292.8,-4.23,-12.15,-8.97,0,*64
1515711812.83,13674,9.38,73294.5,-4.21,-12.21,-8.97,0,*66
1515711814.05,13675,9.38,73294.3,-4.21,-12.29,-9.01,0,*61
1515711815.31,13676,9.38,73294.8,-4.23,-12.29,-9.11,0,*61
1515711816.57,13677,9.38,73292.8,-4.21,-12.35,-9.15,0,*6B
1515711817.8,13678,9.38,73294.8,-4.21,-12.43,-9.11,0,*61
1515711819.05,13679,9.38,73292.3,-4.23,-12.43,-9.15,0,*66
1515711820.29,13680,9.38,73292.3,-4.21,-12.43,-9.15,0,*62
1515711821.55,13681,9.38,73296.0,-4.21,-12.35,-9.15,0,*62
1515711822.81,13682,9.38,73294.8,-4.21,-12.35,-9.15,0,*61
1515711824.04,13683,9.38,73292.8,-4.23,-12.47,-9.23,0,*62
1515711825.27,13684,9.38,73292.8,-4.21,-12.57,-9.27,0,*62
1515711826.51,13685,9.38,73294.3,-4.21,-12.57,-9.27,0,*63
1515711827.74,13686,9.38,73294.0,-4.21,-12.57,-9.31,0,*67
1515711829.0,13687,9.38,73292.0,-4.21,-12.61,-9.41,0,*64
1515711830.26,13688,9.38,73296.0,-4.21,-12.71,-9.41,0,*6A
1515711831.51,13689,9.38,73298.5,-4.23,-12.71,-9.31,0,*6E
1515711832.79,13690,9.38,73292.5,-4.23,-12.71,-9.45,0,*65
1515711834.07,13691,9.38,73294.8,-4.23,-12.61,-9.45,0,*65
1515711835.34,13692,9.38,73296.0,-4.21,-12.71,-9.45,0,*65
1515711836.62,13693,9.38,73292.3,-4.23,-12.83,-9.53,0,*6C
1515711837.91,13694,9.38,73294.8,-4.23,-12.75,-9.53,0,*62
1515711839.19,13695,9.38,73292.8,-4.23,-12.83,-9.53,0,*6A
1515711840.46,13696,9.31,73292.5,-4.23,-12.83,-9.57,0,*6D
1515711841.72,13697,9.38,73294.5,-4.21,-12.83,-9.57,0,*6E
1515711843.0,13698,9.38,73294.5,-4.23,-12.75,-9.57,0,*6A
1515711844.25,13699,9.38,73298.0,-4.23,-12.83,-9.67,0,*61
1515711845.51,13700,9.38,73292.5,-4.23,-12.83,-9.67,0,*60
1515711846.72,13701,9.38,73294.0,-4.21,-12.89,-9.71,0,*6E
1515711847.96,13702,9.38,73296.3,-4.23,-12.93,-9.79,0,*6C
1515711849.17,13703,9.38,73294.8,-4.21,-12.89,-9.71,0,*6C
1515711850.38,13704,9.38,73294.0,-4.25,-12.97,-9.75,0,*64
1515711851.61,13705,9.38,73294.0,-4.23,-12.89,-9.71,0,*68
1515711852.85,13706,9.38,73292.0,-4.23,-12.89,-9.79,0,*63
1515711854.08,13707,9.38,73294.3,-4.23,-12.93,-9.79,0,*69
1515711855.32,13708,9.38,73296.0,-4.23,-12.93,-9.79,0,*66
1515711856.56,13709,9.38,73294.0,-4.21,-13.01,-9.79,0,*6F
1515711857.81,13710,9.31,73292.3,-4.23,-13.07,-9.83,0,*66
1515711859.05,13711,9.38,73292.5,-4.23,-13.07,-9.93,0,*66
1515711860.25,13712,9.38,73296.0,-4.25,-13.07,-9.89,0,*68
1515711861.46,13713,9.38,73294.0,-4.25,-13.07,-9.97,0,*66
1515711862.67,13714,9.38,73294.3,-4.25,-13.11,-9.97,0,*66
1515711863.88,13715,9.38,73294.5,-4.25,-13.11,-9.89,0,*68
1515711865.13,13716,9.38,73292.5,-4.23,-13.07,-9.83,0,*60
1515711866.34,13717,9.38,73292.3,-4.25,-13.11,-9.89,0,*6A
1515711867.57,13718,9.38,73294.5,-4.27,-13.11,-9.89,0,*67
1515711868.78,13719,9.38,73294.0,-4.25,-13.11,-9.97,0,*6B
1515711869.99,13720,9.38,73296.3,-4.25,-13.07,-9.97,0,*66
1515711871.2,13721,9.38,73294.0,-4.25,-13.11,-9.97,0,*60
1515711872.41,13722,9.31,73290.0,-4.25,-13.11,-10.01,0,*54
1515711873.63,13723,9.38,73294.5,-4.25,-13.11,-10.01,0,*55
1515711874.85,13724,9.38,73294.0,-4.25,-13.07,-10.01,0,*55
1515711876.07,13725,9.38,73292.3,-4.25,-13.07,-10.09,0,*5C
1515711877.29,13726,9.38,73294.5,-4.25,-13.07,-10.01,0,*57
1515711878.51,13727,9.38,73294.8,-4.25,-13.07,-10.01,0,*56
1515711879.72,13728,9.31,73290.3,-4.25,-12.93,-9.97,0,*62
1515711880.94,13729,9.31,73292.8,-4.25,-12.93,-10.01,0,*54
1515711882.15,13730,9.38,73296.8,-4.25,-12.93,-10.09,0,*54
1515711883.4,13731,9.38,73294.3,-4.27,-12.97,-10.09,0,*53
1515711884.62,13732,9.38,73292.5,-4.25,-12.97,-10.01,0,*5A
1515711885.85,13733,9.38,73292.3,-4.27,-12.93,-9.97,0,*6A
1515711887.06,13734,9.38,73294.8,-4.25,-12.93,-9.97,0,*6F
1515711888.32,13735,9.31,73290.8,-4.27,-12.79,-9.97,0,*68
1515711889.56,13736,9.38,73294.5,-4.27,-12.93,-10.09,0,*50
1515711890.8,13737,9.31,73292.8,-4.27,-12.89,-9.97,0,*65
1515711892.04,13738,9.38,73292.5,-4.25,-12.79,-10.01,0,*50
1515711893.26,13739,9.38,73292.0,-4.25,-12.89,-10.01,0,*5E
1515711894.51,13740,9.38,73294.8,-4.27,-12.89,-10.01,0,*52
1515711895.72,13741,9.38,73294.5,-4.25,-12.89,-10.09,0,*59
1515711896.99,13742,9.38,73294.0,-4.27,-12.79,-10.09,0,*57
1515711898.25,13743,9.38,73296.0,-4.27,-12.79,-10.09,0,*56
1515711899.5,13744,9.38,73294.5,-4.25,-12.79,-10.15,0,*5E
1515711900.71,13745,9.38,73292.3,-4.25,-12.89,-10.09,0,*5D
1515711901.96,13746,9.38,73292.5,-4.27,-12.89,-10.15,0,*51
1515711903.2,13747,9.38,73294.0,-4.27,-12.89,-10.15,0,*50
1515711904.47,13748,9.38,73294.5,-4.27,-12.75,-10.15,0,*5C
1515711905.74,13749,9.38,73292.3,-4.27,-12.75,-10.23,0,*58
1515711906.99,13750,9.38,73296.3,-4.25,-12.65,-10.15,0,*56
1515711908.25,13751,9.38,73292.5,-4.27,-12.65,-10.23,0,*50
1515711909.53,13752,9.38,73294.5,-4.27,-12.75,-10.27,0,*56
1515711910.79,13753,9.38,73296.0,-4.27,-12.65,-10.23,0,*52
1515711912.06,13754,9.38,73292.5,-4.27,-12.75,-10.27,0,*50
1515711913.33,13755,9.38,73294.3,-4.27,-12.61,-10.27,0,*54
1515711914.6,13756,9.38,73298.5,-4.27,-12.61,-10.27,0,*57
1515711915.85,13757,9.38,73298.0,-4.29,-12.65,-10.35,0,*5F
1515711917.1,13758,9.38,73296.3,-4.29,-12.65,-10.35,0,*50
1515711918.36,13759,9.38,73296.3,-4.27,-12.61,-10.31,0,*5F
1515711919.64,13760,9.38,73294.5,-4.27,-12.53,-10.31,0,*54
1515711920.88,13761,9.31,73292.3,-4.27,-12.47,-10.31,0,*50
1515711922.12,13762,9.38,73294.8,-4.27,-12.47,-10.31,0,*53
1515711923.37,13763,9.38,73294.8,-4.27,-12.39,-10.31,0,*5B
1515711924.58,13764,9.38,73298.0,-4.29,-12.43,-10.49,0,*50
1515711925.8,13765,9.38,73294.8,-4.29,-12.43,-10.45,0,*5D
1515711927.02,13766,9.38,73292.0,-4.29,-12.43,-10.49,0,*52
1515711928.26,13767,9.38,73292.3,-4.27,-12.39,-10.45,0,*5C
1515711929.55,13768,9.31,73288.0,-4.27,-12.35,-10.41,0,*5B
1515711930.83,13769,9.38,73296.0,-4.27,-12.25,-10.41,0,*5B
1515711932.09,13770,9.38,73292.5,-4.27,-12.35,-10.53,0,*51
1515711933.31,13771,9.38,73292.5,-4.33,-12.39,-10.57,0,*5D
1515711934.53,13772,9.38,73292.8,-4.29,-12.29,-10.57,0,*54
1515711935.78,13773,9.38,73292.8,-4.29,-12.39,-10.63,0,*53
1515711937.03,13774,9.38,73292.3,-4.29,-12.29,-10.63,0,*55
1515711938.27,13775,9.38,73292.5,-4.29,-12.29,-10.63,0,*54
1515711939.52,13776,9.38,73296.0,-4.29,-12.29,-10.71,0,*54
1515711940.77,13777,9.38,73296.5,-4.29,-12.29,-10.71,0,*55
1515711942.04,13778,9.38,73292.8,-4.27,-12.21,-10.67,0,*5B
1515711943.29,13779,9.38,73296.3,-4.29,-12.25,-10.71,0,*57
1515711944.56,13780,9.38,73294.0,-4.29,-12.15,-10.71,0,*52
1515711945.83,13781,9.38,73292.0,-4.29,-12.11,-10.75,0,*53
1515711947.1,13782,9.38,73294.0,-4.29,-12.15,-10.75,0,*54
1515711948.37,13783,9.38,73294.5,-4.29,-12.07,-10.71,0,*52
1515711949.64,13784,9.38,73294.8,-4.29,-12.07,-10.75,0,*51
1515711950.92,13785,9.38,73292.0,-4.29,-12.07,-10.75,0,*50
1515711952.19,13786,9.31,73290.3,-4.29,-11.97,-10.75,0,*59
1515711953.47,13787,9.38,73292.8,-4.29,-11.93,-10.75,0,*5C
1515711954.74,13788,9.38,73292.8,-4.33,-11.93,-10.71,0,*5C
1515711956.0,13789,9.31,73292.0,-4.33,-11.85,-10.71,0,*5A
1515711957.26,13790,9.38,73292.5,-4.33,-11.81,-10.75,0,*52
1515711958.53,13791,9.38,73294.5,-4.29,-11.85,-10.71,0,*58
1515711959.79,13792,9.38,73294.5,-4.33,-11.73,-10.71,0,*59
1515711961.06,13793,9.38,73292.3,-4.33,-11.67,-10.71,0,*5D
1515711962.32,13794,9.38,73294.3,-4.33,-11.67,-10.71,0,*5A
1515711963.59,13795,9.31,73292.5,-4.29,-11.55,-10.71,0,*51
1515711964.84,13796,9.38,73292.0,-4.29,-11.55,-10.57,0,*56
1515711966.11,13797,9.31,73290.5,-4.29,-11.55,-10.63,0,*50
1515711967.36,13798,9.38,73292.5,-4.29,-11.45,-10.63,0,*5E
1515711968.59,13799,9.38,73294.3,-4.29,-11.45,-10.57,0,*58
1515711969.81,13800,9.31,73290.8,-4.29,-11.41,-10.57,0,*53
1515711971.05,13801,9.38,73292.5,-4.33,-11.33,-10.49,0,*53
1515711972.3,13802,9.38,73292.3,-4.33,-11.29,-10.45,0,*57
1515711973.51,13803,9.31,73288.3,-4.33,-11.19,-10.45,0,*55
1515711974.72,13804,9.38,73294.5,-4.33,-11.19,-10.45,0,*52
1515711975.94,13805,9.38,73294.3,-4.33,-11.15,-10.45,0,*5F
1515711977.16,13806,9.38,73292.0,-4.29,-11.01,-10.45,0,*52
1515711978.38,13807,9.38,73296.5,-4.29,-11.11,-10.45,0,*52
1515711979.6,13808,9.38,73294.8,-4.33,-11.01,-10.45,0,*57
1515711980.83,13809,9.38,73294.3,-4.33,-10.97,-10.35,0,*5F
1515711982.05,13810,9.38,73294.8,-4.33,-10.97,-10.35,0,*57
1515711983.27,13811,9.38,73294.0,-4.33,-10.89,-10.31,0,*5D
1515711984.5,13812,9.38,73292.3,-4.33,-10.97,-10.35,0,*55
1515711985.74,13813,9.31,73294.0,-4.33,-10.75,-10.31,0,*5C
1515711986.99,13814,9.38,73294.0,-4.29,-10.75,-10.31,0,*50
1515711988.23,13815,9.31,73290.8,-4.33,-10.71,-10.27,0,*59
1515711989.48,13816,9.38,73294.5,-4.29,-10.71,-10.27,0,*51
1515711990.74,13817,9.38,73294.5,-4.29,-10.63,-10.19,0,*5E
1515711991.99,13818,9.38,73294.3,-4.33,-10.63,-10.19,0,*5A
1515711993.21,13819,9.31,73288.8,-4.33,-10.57,-10.19,0,*5C
1515711994.43,13820,9.38,73294.5,-4.33,-10.57,-10.15,0,*5A
1515711995.65,13821,9.31,73294.3,-4.33,-10.49,-10.01,0,*51
1515711996.87,13822,9.31,73292.8,-4.33,-10.35,-10.01,0,*59
1515711998.08,13823,9.38,73294.5,-4.33,-10.35,-9.93,0,*6B
1515711999.3,13824,9.38,73292.3,-4.33,-10.31,-9.93,0,*68
1515712000.51,13825,9.31,73290.5,-4.33,-10.31,-9.79,0,*6D
1515712001.71,13826,9.38,73294.5,-4.33,-10.27,-9.89,0,*66
1515712002.92,13827,9.38,73294.0,-4.29,-10.27,-9.89,0,*6C
1515712004.14,13828,9.38,73294.0,-4.29,-10.15,-9.79,0,*6D
1515712005.35,13829,9.38,73294.5,-4.33,-10.15,-9.79,0,*67
1515712006.56,13830,9.31,73292.5,-4.33,-10.01,-9.75,0,*66
1515712007.76,13831,9.38,73294.0,-4.33,-10.01,-9.75,0,*67
1515712008.96,13832,9.38,73296.8,-4.33,-9.93,-9.75,0,*57
1515712010.18,13833,9.31,73294.3,-4.33,-9.89,-9.61,0,*58
1515712011.4,13834,9.38,73294.0,-4.33,-9.89,-9.53,0,*5E
1515712012.64,13835,9.31,73290.8,-4.29,-9.79,-9.53,0,*5B
1515712013.87,13836,9.38,73292.3,-4.33,-9.79,-9.41,0,*50
1515712015.1,13837,9.31,73292.5,-4.29,-9.79,-9.49,0,*52
1515712016.33,13838,9.38,73294.3,-4.29,-9.75,-9.37,0,*58
1515712017.53,13839,9.31,73290.8,-4.33,-9.75,-9.31,0,*54
1515712018.73,13840,9.31,73290.8,-4.33,-9.67,-9.31,0,*59
1515712019.94,13841,9.31,73292.8,-4.33,-9.61,-9.31,0,*5E
1515712021.16,13842,9.31,73292.8,-4.33,-9.61,-9.23,0,*5E
1515712022.38,13843,9.38,73294.0,-4.33,-9.53,-9.23,0,*5E
1515712023.61,13844,9.38,73296.8,-4.33,-9.49,-9.19,0,*5B
1515712024.83,13845,9.38,73296.0,-4.33,-9.49,-9.19,0,*5A
1515712026.09,13846,9.31,73292.3,-4.33,-9.37,-9.11,0,*58
1515712027.32,13847,9.31,73292.0,-4.33,-9.37,-9.05,0,*5C
1515712028.55,13848,9.38,73292.3,-4.33,-9.37,-9.05,0,*53
1515712029.76,13849,9.31,73294.3,-4.29,-9.31,-9.05,0,*5F
1515712030.96,13850,9.38,73294.0,-4.33,-9.31,-8.97,0,*56
1515712032.22,13851,9.31,73292.0,-4.35,-9.37,-8.97,0,*57
1515712033.42,13852,9.38,73294.8,-4.33,-9.23,-8.93,0,*53
1515712034.62,13853,9.31,73294.5,-4.33,-9.31,-8.93,0,*51
1515712035.83,13854,9.38,73294.8,-4.33,-9.19,-8.85,0,*5B
1515712037.06,13855,9.31,73292.0,-4.33,-9.19,-8.81,0,*5E
1515712038.27,13856,9.31,73292.0,-4.29,-9.19,-8.85,0,*52
1515712039.52,13857,9.38,73292.5,-4.33,-9.11,-8.81,0,*54
1515712040.75,13858,9.38,73294.0,-4.33,-9.11,-8.71,0,*54
1515712041.95,13859,9.31,73292.8,-4.33,-9.05,-8.71,0,*50
1515712043.15,13860,9.31,73294.8,-4.33,-8.97,-8.71,0,*50
1515712044.35,13861,9.31,73292.8,-4.33,-8.97,-8.71,0,*51
1515712045.55,13862,9.31,73294.5,-4.33,-8.97,-8.71,0,*52
1515712046.75,13863,9.31,73292.0,-4.33,-8.85,-8.59,0,*5A
1515712047.98,13864,9.31,73292.0,-4.33,-8.81,-8.59,0,*59
1515712049.18,13865,9.38,73292.5,-4.33,-8.85,-8.55,0,*50
1515712050.38,13866,9.38,73296.0,-4.33,-8.71,-8.55,0,*58
1515712051.61,13867,9.38,73294.8,-4.35,-8.71,-8.59,0,*53
1515712052.83,13868,9.38,73292.3,-4.33,-8.59,-8.51,0,*58
1515712054.06,13869,9.31,73292.8,-4.33,-8.59,-8.51,0,*59
1515712055.29,13870,9.38,73292.5,-4.33,-8.55,-8.51,0,*5D
1515712056.52,13871,9.38,73292.3,-4.33,-8.55,-8.51,0,*5C
1515712057.74,13872,9.38,73292.3,-4.35,-8.55,-8.55,0,*5D
1515712058.97,13873,9.38,73294.8,-4.33,-8.51,-8.41,0,*5B
1515712060.17,13874,9.38,73292.8,-4.33,-8.41,-8.41,0,*5D
1515712061.37,13875,9.38,73292.0,-4.33,-8.37,-8.41,0,*5D
1515712062.57,13876,9.38,73292.3,-4.33,-8.29,-8.41,0,*51
1515712063.78,13877,9.38,73294.3,-4.33,-8.29,-8.37,0,*51
1515712064.98,13878,9.31,73290.5,-4.29,-8.29,-8.37,0,*55
1515712066.19,13879,9.38,73294.3,-4.33,-8.29,-8.37,0,*5F
1515712067.39,13880,9.38,73294.5,-4.33,-8.17,-8.29,0,*5B
1515712068.6,13881,9.38,73292.0,-4.29,-8.17,-8.37,0,*5E
1515712069.84,13882,9.38,73294.5,-4.33,-8.11,-8.37,0,*50
1515712071.06,13883,9.38,73292.8,-4.33,-8.03,-8.29,0,*5D
1515712072.28,13884,9.38,73296.5,-4.33,-7.99,-8.25,0,*5A
1515712073.51,13885,9.38,73294.0,-4.29,-7.99,-8.25,0,*50
1515712074.73,13886,9.38,73292.0,-4.33,-7.91,-8.25,0,*50
1515712075.93,13887,9.38,73298.0,-4.33,-7.87,-8.29,0,*5A
1515712077.13,13888,9.38,73298.0,-4.33,-7.87,-8.17,0,*58
1515712078.36,13889,9.31,73294.0,-4.33,-7.77,-8.25,0,*57
1515712079.59,13890,9.38,73294.8,-4.33,-7.73,-8.17,0,*5A
1515712080.81,13891,9.38,73294.3,-4.29,-7.69,-8.25,0,*5A
1515712082.04,13892,9.31,73294.3,-4.29,-7.61,-8.17,0,*50
1515712083.27,13893,9.31,73292.3,-4.29,-7.61,-8.17,0,*51
1515712084.51,13894,9.31,73292.3,-4.29,-7.57,-8.17,0,*53
1515712085.7,13895,9.38,73292.5,-4.33,-7.49,-8.17,0,*56
1515712086.93,13896,9.31,73292.8,-4.33,-7.49,-8.03,0,*50
1515712088.18,13897,9.38,73294.3,-4.29,-7.35,-8.03,0,*51
1515712089.43,13898,9.38,73296.0,-4.33,-7.31,-7.99,0,*5D
1515712090.66,13899,9.38,73294.3,-4.29,-7.19,-8.03,0,*51
1515712091.89,13900,9.38,73296.3,-4.29,-7.11,-7.91,0,*5C
1515712093.15,13901,9.31,73292.3,-4.29,-7.05,-7.77,0,*50
1515712094.41,13902,9.38,73294.8,-4.33,-6.97,-7.73,0,*56
1515712095.67,13903,9.38,73294.8,-4.29,-6.93,-7.61,0,*5B
1515712096.9,13904,9.38,73296.0,-4.33,-6.85,-7.73,0,*53
1515712098.14,13905,9.31,73294.8,-4.33,-6.81,-7.61,0,*55
1515712099.34,13906,9.38,73298.0,-4.33,-6.77,-7.49,0,*55
1515712100.55,13907,9.38,73292.8,-4.29,-6.77,-7.49,0,*5F
1515712101.76,13908,9.38,73294.5,-4.29,-6.77,-7.49,0,*50
1515712102.99,13909,9.38,73298.0,-4.33,-6.69,-7.43,0,*5F
1515712104.24,13910,9.38,73296.0,-4.29,-6.63,-7.43,0,*56
1515712105.48,13911,9.38,73294.5,-4.29,-6.51,-7.35,0,*57
1515712106.72,13912,9.31,73292.8,-4.29,-6.51,-7.31,0,*50
1515712107.92,13913,9.38,73296.5,-4.33,-6.43,-7.23,0,*5A
1515712109.13,13914,9.31,73294.3,-4.29,-6.39,-7.23,0,*5B
1515712110.34,13915,9.38,73298.0,-4.29,-6.39,-7.11,0,*5B
1515712111.58,13916,9.38,73296.8,-4.33,-6.27,-7.05,0,*59
1515712112.81,13917,9.38,73294.5,-4.29,-6.31,-7.05,0,*54
1515712114.06,13918,9.31,73292.3,-4.29,-6.27,-6.97,0,*56